Total_Precipitation_Accumulation
0.00 0.00 0.00 0.00 0.00 0.00 0.00 0.00 0.00 0.00 0.00 0.00 0.00 0.00 0.00 0.00 0.00 0.00 0.00 0.00 0.00 0.00 0.00 0.00 0.00 0.00 0.00 0.00 0.02 0.00 0.00 0.02 0.02 0.30 0.84 1.31 1.22 1.59 0.83 0.37 0.04 0.01 0.00 0.00
0.00 0.00 0.00 0.00 0.00 0.00 0.00 0.00 0.00 0.00 0.00 0.00 0.00 0.00 0.00 0.00 0.00 0.00 0.00 0.00 0.00 0.00 0.00 0.00 0.00 0.00 0.00 0.00 0.02 0.02 0.01 0.02 0.04 0.06 0.70 1.05 1.31 1.47 1.46 0.84 0.19 0.01 0.00 0.00
0.00 0.00 0.00 0.00 0.00 0.00 0.00 0.00 0.00 0.00 0.00 0.00 0.00 0.00 0.00 0.00 0.00 0.00 0.00 0.00 0.00 0.00 0.00 0.00 0.00 0.00 0.00 0.01 0.01 0.04 0.02 0.01 0.04 0.03 0.31 1.34 1.33 1.54 1.42 0.83 0.34 0.02 0.01 0.00
0.00 0.00 0.00 0.00 0.00 0.00 0.00 0.00 0.00 0.00 0.00 0.00 0.00 0.00 0.00 0.00 0.00 0.00 0.00 0.00 0.00 0.00 0.00 0.00 0.00 0.00 0.00 0.00 0.00 0.02 0.04 0.02 0.02 0.03 0.13 0.99 1.85 1.64 1.60 1.05 0.46 0.03 0.01 0.00
0.00 0.00 0.00 0.00 0.00 0.00 0.00 0.00 0.00 0.00 0.00 0.00 0.00 0.00 0.00 0.00 0.00 0.00 0.00 0.00 0.00 0.00 0.00 0.00 0.00 0.00 0.00 0.00 0.00 0.00 0.02 0.03 0.01 0.03 0.11 0.54 1.08 1.51 1.87 1.36 0.69 0.04 0.01 0.00
0.00 0.00 0.00 0.00 0.00 0.00 0.00 0.00 0.00 0.00 0.00 0.00 0.00 0.00 0.00 0.00 0.00 0.00 0.00 0.00 0.00 0.00 0.00 0.00 0.00 0.00 0.00 0.00 0.00 0.00 0.01 0.03 0.02 0.01 0.10 0.37 0.60 1.24 1.78 1.95 1.01 0.12 0.01 0.00
0.00 0.00 0.00 0.00 0.00 0.00 0.00 0.00 0.00 0.00 0.00 0.00 0.00 0.00 0.00 0.00 0.00 0.00 0.00 0.00 0.00 0.00 0.00 0.00 0.00 0.00 0.00 0.00 0.00 0.00 0.01 0.04 0.03 0.01 0.04 0.20 0.36 0.75 1.19 1.90 1.08 0.23 0.03 0.00
0.00 0.00 0.00 0.00 0.00 0.00 0.00 0.00 0.00 0.00 0.00 0.00 0.00 0.00 0.00 0.00 0.00 0.00 0.00 0.00 0.00 0.00 0.00 0.00 0.00 0.00 0.00 0.00 0.00 0.00 0.00 0.03 0.04 0.01 0.01 0.10 0.24 0.44 0.94 1.13 1.09 0.38 0.02 0.00
0.00 0.00 0.00 0.00 0.00 0.00 0.00 0.00 0.00 0.01 0.00 0.01 0.00 0.00 0.00 0.00 0.00 0.00 0.00 0.00 0.00 0.00 0.00 0.00 0.00 0.00 0.00 0.00 0.00 0.00 0.00 0.01 0.04 0.01 0.00 0.03 0.17 0.42 0.81 0.73 0.91 0.44 0.07 0.00
0.00 0.00 0.00 0.00 0.00 0.00 0.00 0.00 0.00 0.00 0.02 0.01 0.00 0.00 0.00 0.00 0.00 0.00 0.00 0.00 0.01 0.01 0.00 0.00 0.00 0.00 0.00 0.00 0.00 0.00 0.00 0.00 0.03 0.01 0.00 0.00 0.12 0.31 0.89 0.73 0.55 0.55 0.19 0.01
0.00 0.01 0.00 0.00 0.00 0.00 0.00 0.00 0.01 0.01 0.01 0.05 0.03 0.00 0.00 0.00 0.01 0.03 0.03 0.03 0.03 0.03 0.02 0.01 0.01 0.00 0.00 0.00 0.00 0.00 0.00 0.00 0.01 0.00 0.00 0.00 0.04 0.18 0.81 0.98 0.43 0.30 0.19 0.04
0.00 0.01 0.01 0.00 0.00 0.00 0.00 0.00 0.02 0.03 0.03 0.04 0.07 0.02 0.01 0.01 0.01 0.07 0.16 0.12 0.07 0.04 0.03 0.03 0.02 0.00 0.01 0.00 0.00 0.00 0.00 0.00 0.00 0.00 0.00 0.00 0.01 0.09 0.62 1.06 0.55 0.18 0.24 0.12
0.00 0.00 0.00 0.00 0.00 0.00 0.00 0.01 0.03 0.05 0.05 0.03 0.08 0.01 0.00 0.00 0.00 0.02 0.10 0.14 0.09 0.07 0.06 0.03 0.01 0.01 0.01 0.01 0.01 0.00 0.00 0.00 0.00 0.00 0.00 0.00 0.03 0.09 0.51 0.92 0.65 0.11 0.17 0.26
0.00 0.00 0.00 0.00 0.00 0.00 0.00 0.00 0.02 0.04 0.04 0.03 0.02 0.02 0.00 0.01 0.04 0.07 0.13 0.11 0.10 0.11 0.12 0.09 0.05 0.03 0.01 0.01 0.01 0.01 0.00 0.00 0.00 0.00 0.00 0.01 0.04 0.08 0.26 0.76 0.57 0.15 0.09 0.20
0.00 0.00 0.00 0.00 0.00 0.00 0.00 0.00 0.01 0.01 0.00 0.02 0.01 0.01 0.00 0.04 0.14 0.16 0.23 0.14 0.17 0.11 0.09 0.10 0.13 0.07 0.03 0.01 0.01 0.01 0.00 0.00 0.00 0.00 0.01 0.01 0.05 0.08 0.18 0.54 0.44 0.28 0.16 0.13
0.00 0.00 0.00 0.00 0.00 0.00 0.00 0.00 0.00 0.00 0.00 0.00 0.01 0.01 0.00 0.01 0.02 0.07 0.10 0.19 0.22 0.14 0.09 0.07 0.13 0.06 0.03 0.02 0.00 0.00 0.00 0.00 0.00 0.01 0.02 0.02 0.09 0.12 0.24 0.31 0.52 0.50 0.46 0.26
0.00 0.00 0.00 0.00 0.00 0.00 0.00 0.00 0.00 0.00 0.00 0.00 0.02 0.01 0.03 0.09 0.08 0.12 0.25 0.38 0.27 0.22 0.21 0.27 0.24 0.15 0.05 0.02 0.00 0.00 0.01 0.01 0.02 0.04 0.04 0.04 0.09 0.11 0.22 0.34 0.28 0.62 0.64 0.48
0.00 0.00 0.00 0.00 0.00 0.00 0.00 0.00 0.00 0.00 0.00 0.00 0.00 0.00 0.01 0.06 0.03 0.08 0.26 0.43 0.45 0.28 0.24 0.40 0.34 0.20 0.08 0.05 0.00 0.00 0.04 0.04 0.05 0.06 0.05 0.06 0.08 0.06 0.12 0.34 0.32 0.32 0.54 0.48
0.00 0.00 0.00 0.00 0.00 0.00 0.00 0.00 0.00 0.00 0.00 0.00 0.00 0.00 0.00 0.01 0.00 0.00 0.02 0.18 0.37 0.37 0.35 0.51 0.56 0.41 0.18 0.08 0.03 0.02 0.06 0.05 0.07 0.07 0.07 0.08 0.03 0.01 0.06 0.14 0.28 0.26 0.28 0.50
0.00 0.00 0.00 0.00 0.00 0.00 0.00 0.00 0.00 0.00 0.00 0.00 0.00 0.01 0.03 0.07 0.13 0.07 0.12 0.29 0.44 0.35 0.39 0.54 0.47 0.26 0.16 0.12 0.08 0.03 0.05 0.05 0.10 0.10 0.07 0.05 0.01 0.00 0.03 0.10 0.23 0.22 0.22 0.29
0.00 0.00 0.00 0.00 0.00 0.00 0.00 0.00 0.00 0.00 0.00 0.00 0.00 0.01 0.06 0.11 0.19 0.21 0.24 0.31 0.44 0.42 0.50 0.54 0.32 0.24 0.26 0.32 0.21 0.06 0.06 0.09 0.15 0.08 0.02 0.01 0.00 0.00 0.05 0.10 0.21 0.18 0.22 0.25
0.00 0.00 0.00 0.00 0.00 0.00 0.00 0.00 0.00 0.00 0.00 0.00 0.01 0.01 0.05 0.02 0.02 0.06 0.15 0.25 0.49 0.52 0.50 0.68 0.54 0.46 0.64 0.59 0.27 0.09 0.14 0.13 0.11 0.04 0.01 0.00 0.01 0.03 0.05 0.13 0.22 0.22 0.19 0.19
0.00 0.00 0.00 0.00 0.00 0.00 0.00 0.00 0.00 0.00 0.00 0.00 0.03 0.02 0.03 0.03 0.02 0.03 0.12 0.21 0.42 0.57 0.71 0.99 0.99 0.74 0.47 0.32 0.18 0.13 0.17 0.07 0.03 0.01 0.00 0.00 0.01 0.03 0.03 0.12 0.23 0.22 0.17 0.15
0.00 0.00 0.00 0.00 0.00 0.00 0.00 0.00 0.00 0.00 0.00 0.00 0.01 0.02 0.02 0.04 0.01 0.02 0.04 0.14 0.35 0.53 0.85 1.09 0.75 0.46 0.34 0.28 0.29 0.25 0.18 0.06 0.01 0.00 0.00 0.00 0.01 0.03 0.02 0.11 0.25 0.23 0.14 0.08
0.00 0.00 0.00 0.00 0.00 0.00 0.00 0.00 0.00 0.00 0.00 0.00 0.00 0.00 0.01 0.03 0.02 0.02 0.02 0.07 0.25 0.59 0.85 1.02 0.91 0.71 0.47 0.38 0.38 0.35 0.16 0.08 0.04 0.01 0.01 0.02 0.03 0.04 0.04 0.08 0.23 0.26 0.18 0.12
0.00 0.00 0.00 0.00 0.00 0.00 0.00 0.00 0.00 0.00 0.00 0.00 0.02 0.02 0.00 0.01 0.02 0.01 0.01 0.02 0.16 0.41 0.75 0.98 1.00 0.82 0.57 0.36 0.30 0.23 0.25 0.13 0.05 0.03 0.02 0.04 0.05 0.05 0.05 0.06 0.14 0.25 0.19 0.14